Flag for U.S.A. Weather past 2 weeks in Clearwater, Florida, U.S.A.

Now
64 °F

Clear.


Feels Like: 64 °F
Forecast: 53 / 68 °F
Wind: 8 mph from South

Location: St. Petersburg / Clearwater International Airport

Current Time: Feb 1, 2015 at 9:27:32 PM

Latest Report: Feb 1, 2015 at 8:53 PM


Visibility: 10 mi

Pressure: 30.06 "Hg

Humidity: 73%

Dew point: 55 °F

Location of ClearwaterLocation

Historic Weather in Clearwater — Graph

°F

Clearwater temperature yesterday

Maximum temperature yesterday: 71 °F (at 2:53 PM)
Minimum temperature yesterday: 50 °F (at 6:53 AM)
Average temperature yesterday: 60 °F

Past Weeks' High & Low Weather Summary

 TemperatureHumidityPressure
High79 °F (Jan 22, 2:53 PM)100% (Jan 18, 1:53 AM)30.34 "Hg (Jan 18, 1:53 AM)
Low45 °F (Jan 25, 4:53 AM)29% (Jan 19, 3:53 PM)29.83 "Hg (Jan 24, 3:53 AM)
Average61 °F74%30.10 "Hg
* Reported Jan 17 7:53 PM — Feb 1 7:53 PM, Clearwater, Weather by CustomWeather, © 2014

Note: Actual official high and low records may vary slightly from our data, if they occured in-between our weather recording intervals... More about our weather records

Advertising

Clearwater weather history for previous 24 hours

 ConditionsComfort  
Time TempWeatherWind HumidityBarometerVisibility
7:53 PM
Feb 1
66 °FClear.9 mph65%30.06 "Hg10 mi
6:53 PM67 °FClear.12 mph61%30.05 "Hg10 mi
5:53 PM70 °FSunny.13 mph55%30.06 "Hg10 mi
4:53 PM74 °FSunny.13 mph48%30.06 "Hg10 mi
3:53 PM76 °FSunny.15 mph43%30.06 "Hg10 mi
2:53 PM75 °FSunny.17 mph43%30.08 "Hg10 mi
1:53 PM75 °FSunny.16 mph42%30.11 "Hg10 mi
12:53 PM73 °FSunny.16 mph48%30.14 "Hg10 mi
11:53 AM72 °FSunny.18 mph53%30.19 "Hg10 mi
10:53 AM70 °FSunny.13 mph57%30.22 "Hg10 mi
9:53 AM65 °FSunny.13 mph66%30.23 "Hg10 mi
8:53 AM61 °FSunny.7 mph75%30.23 "Hg10 mi
7:53 AM54 °FSunny.3 mph90%30.23 "Hg10 mi
6:53 AM56 °FClear.6 mph84%30.22 "Hg10 mi
5:53 AM56 °FClear.8 mph84%30.20 "Hg10 mi
4:53 AM56 °FClear.8 mph84%30.20 "Hg10 mi
3:53 AM56 °FClear.6 mph84%30.21 "Hg10 mi
2:53 AM57 °FClear.9 mph78%30.21 "Hg10 mi
1:53 AM58 °FClear.7 mph78%30.23 "Hg10 mi
12:53 AM58 °FClear.7 mph78%30.23 "Hg10 mi
11:53 PM
Jan 31
59 °FClear.8 mph75%30.24 "Hg10 mi
10:53 PM60 °FClear.12 mph72%30.25 "Hg10 mi
9:53 PM61 °FClear.13 mph67%30.25 "Hg10 mi
Weather by CustomWeather, © 2014

See weather overviewHow to use our weather pages